Munising, MI

8:11 PM EDT on April 19, 2018 (GMT -0400)
Munising

Weather History for KP53 - April, 2014

Change the Weather History Date:

Sunday, April 13, 2014

  Actual Average (KISQ) Record (KISQ)
Temperature  
Mean Temperature 36 °F -  
Max Temperature 39 °F 45 °F 60 °F (2005)
Min Temperature 34 °F 28 °F 9 °F (1950)
Degree Days  
Heating Degree Days 28    
Moisture  
Dew Point 33 °F    
Average Humidity 89    
Maximum Humidity 93    
Minimum Humidity 82    
Precipitation  
Precipitation 0.00 in - - ()
Sea Level Pressure  
Sea Level Pressure 29.82 in    
Wind  
Wind Speed 5 mph (North)    
Max Wind Speed 12 mph    
Max Gust Speed -    
Averages and records for this station are not official NWS values.
T = Trace of Precipitation, MM = Missing Value Source: NWS Daily Summary

Daily Weather History Graph

Daily Weather History Graph

Search for Another Location

Airport or City:

Astronomy

Apr. 13, 2014 Rise Set
Actual Time 7:03 AM EDT 8:31 PM EDT
Civil Twilight 6:32 AM EDT 9:03 PM EDT
Nautical Twilight 5:54 AM EDT 9:41 PM EDT
Astronomical Twilight 5:13 AM EDT 10:22 PM EDT
Moon 7:04 PM EDT (4/13) 6:07 AM EDT (4/13)
Length of Visible Light 14h 30m
Length of Day
13h 28m
Waxing Gibbous, 97% of the Moon is Illuminated
Apr 13
Waxing Gibbous
Apr 15
Full
Apr 22
Last Quarter
Apr 29
New
May 6
First Quarter

Hourly Weather History & Observations

Time (EDT) Temp. Windchill Dew Point Humidity Pressure Visibility Wind Dir Wind Speed Gust Speed Precip Events Conditions
12:56 AM 39.0 °F 32.8 °F 35.1 °F 86% 29.84 in - SSE 9.2 mph - N/A   Unknown
1:56 AM 39.0 °F - 35.1 °F 86% 29.83 in - Calm Calm - N/A   Unknown
2:56 AM 39.0 °F - 35.1 °F 86% 29.83 in - Calm Calm - N/A   Unknown
3:56 AM 37.9 °F - 34.0 °F 86% 29.80 in - Calm Calm - N/A   Unknown
4:56 AM 36.0 °F - 34.0 °F 93% 29.78 in - Calm Calm - N/A   Unknown
5:56 AM 34.0 °F 26.6 °F 32.0 °F 92% 29.78 in - NE 9.2 mph - N/A   Unknown
6:56 AM 34.0 °F - 32.0 °F 92% 29.79 in - Calm Calm - N/A   Unknown
7:56 AM 34.0 °F 29.8 °F 32.0 °F 92% 29.79 in - NNE 4.6 mph - N/A   Unknown
8:56 AM 35.1 °F - 32.0 °F 89% 29.79 in - Calm Calm - N/A   Unknown
9:56 AM 35.1 °F - 32.0 °F 89% 29.80 in - Calm Calm - N/A   Unknown
10:56 AM 35.1 °F - 32.0 °F 89% 29.81 in - Calm Calm - N/A   Unknown
11:56 AM 35.1 °F 29.3 °F 33.1 °F 92% 29.83 in - North 6.9 mph - N/A   Unknown
12:56 PM 36.0 °F 30.3 °F 32.0 °F 86% 29.80 in - North 6.9 mph - N/A   Unknown
1:56 PM 36.0 °F 28.0 °F 32.0 °F 86% 29.82 in - NW 11.5 mph - N/A   Unknown
2:56 PM 36.0 °F 29.6 °F 32.0 °F 86% 29.86 in - NNW 8.1 mph - N/A   Unknown
3:56 PM 36.0 °F 32.1 °F 32.0 °F 86% 29.86 in - NNW 4.6 mph - N/A   Unknown
4:56 PM 37.0 °F 29.8 °F 32.0 °F 82% 29.83 in - NNW 10.4 mph - N/A   Unknown
5:56 PM 36.0 °F 29.0 °F 32.0 °F 86% 29.83 in - NNW 9.2 mph - N/A   Unknown
6:56 PM 35.1 °F 29.3 °F 32.0 °F 89% 29.85 in - NE 6.9 mph - N/A   Unknown
7:56 PM 35.1 °F 31.0 °F 32.0 °F 89% 29.84 in - North 4.6 mph - N/A   Unknown
8:56 PM 34.0 °F 27.2 °F 30.9 °F 89% 29.82 in - NNE 8.1 mph - N/A   Unknown
9:56 PM 34.0 °F - 32.0 °F 92% 29.84 in - Calm Calm - N/A   Unknown
10:56 PM 34.0 °F 27.2 °F 32.0 °F 92% 29.82 in - North 8.1 mph - N/A   Unknown
11:56 PM 34.0 °F 29.8 °F 30.9 °F 89% 29.80 in - ENE 4.6 mph - N/A   Unknown